This is the latest recevied weather packets stored in our database for station/object K4VEB. If no packets are shown the sender has not sent any weather packets the latest 10 day(s).
| Time | Temp. | Humidity | Pressure | Rain* | Wind** | Luminosity | Snow |
|---|---|---|---|---|---|---|---|
| 1778166137 | 31.11° C | 47% | 1015.5 hPa | 0 mm | - | 649 W/m² | - |
| 1778165832 | 31.11° C | 51% | 1015.4 hPa | 0 mm | - | 632 W/m² | - |
| 1778165529 | 30.56° C | 56% | 1015.3 hPa | 0 mm | - | 626 W/m² | - |
| 1778165226 | 30.56° C | 56% | 1015.4 hPa | 0 mm | - | 609 W/m² | - |
| 1778164924 | 30° C | 55% | 1015.4 hPa | 0 mm | - | 599 W/m² | - |
| 1778164621 | 30° C | 57% | 1015.4 hPa | 0 mm | - | 583 W/m² | - |
| 1778164318 | 30° C | 58% | 1015.5 hPa | 0 mm | - | 571 W/m² | - |
| 1778164013 | 30° C | 59% | 1015.6 hPa | 0 mm | - | 555 W/m² | - |
| 1778163710 | 29.44° C | 60% | 1015.6 hPa | 0 mm | - | 542 W/m² | - |
| 1778163406 | 29.44° C | 61% | 1015.6 hPa | 0 mm | - | 523 W/m² | - |
| 1778163103 | 29.44° C | 62% | 1015.7 hPa | 0 mm | - | 513 W/m² | - |
| 1778162800 | 29.44° C | 61% | 1015.8 hPa | 0 mm | - | 496 W/m² | - |
| 1778162497 | 29.44° C | 62% | 1015.9 hPa | 0 mm | - | 481 W/m² | - |
| 1778162194 | 28.89° C | 63% | 1015.9 hPa | 0 mm | - | 463 W/m² | - |
| 1778161892 | 28.89° C | 64% | 1015.8 hPa | 0 mm | - | 451 W/m² | - |
| 1778161588 | 28.33° C | 65% | 1015.9 hPa | 0 mm | - | 430 W/m² | - |
| 1778161284 | 28.33° C | 65% | 1015.8 hPa | 0 mm | - | 415 W/m² | - |
| 1778160980 | 27.78° C | 67% | 1016.1 hPa | 0 mm | - | 396 W/m² | - |
| 1778160678 | 27.22° C | 68% | 1015.7 hPa | 0 mm | - | 383 W/m² | - |
| 1778160375 | 26.67° C | 69% | 1015.8 hPa | 0 mm | - | 362 W/m² | - |
| 1778160071 | 26.67° C | 70% | 1015.8 hPa | 0 mm | - | 348 W/m² | - |
| 1778159768 | 26.67° C | 70% | 1015.9 hPa | 0 mm | - | 330 W/m² | - |
| 1778159466 | 26.11° C | 71% | 1015.8 hPa | 0 mm | - | 314 W/m² | - |
| 1778159162 | 26.11° C | 71% | 1015.5 hPa | 0 mm | - | 293 W/m² | - |
| 1778158860 | 25.56° C | 71% | 1015.4 hPa | 0 mm | - | 279 W/m² | - |
* Rain latest hour (hover to see other rain measurements)
** Current wind speed in m/s (hover to see current wind gust speed)